VKG351 EKCH-WSSS

Flight info

Callsign VKG351
Flight time 9h 9m
Altitude 31000
Route SIMEG DCT RUMAR L983 RANOK/K0911F310 L983 KRD DCT LAKOD/N0493F310 DCT BADUS/K0915F310 L748 BUGOR L749 RONUM N72 WGD A927 SL/K0913F320 A964 NOKLI/K0919F310 N72 DUBOS W87 LIDUS G242 ZG/K0909F330 G242 BABUR N193 NOGBU Q161 TIROM/N0492F330 A845 ATASH A846 ABDAN A909 LEMOD N644 REGET J145 DI M875 LEBIB A466 JHANG M875 IGONA/N0499F350 M875 KAKID M770 OBMOG L515 IKULA R325 MUDMA L515 UPSAB R325 PUT B579 VPL W531 VIH A464 VKL Y507 MAKNA Y511 TOPOR A464 ARAMA ARAMA1B
Aircraft B77W/H-SDE1E2E3FGHIJ2J3J4J5M1RWXY/LB1D1

Departure

Time 2026-05-04 06:07
Airport Copenhagen Kastrup Airport (EKCH)

Arrival

Time 2026-05-04 15:17
Airport Singapore Changi Airport (WSSS)
Time Latitude Longitude Altitude Speed Heading
2026-05-04 05:52 55.62422 12.64897 28 ft 0 kts 89°
2026-05-04 05:58 55.62421 12.64856 28 ft 4 kts 89°
2026-05-04 05:58 55.62421 12.64809 28 ft 4 kts 90°
2026-05-04 05:59 55.62421 12.64761 28 ft 4 kts 92°
2026-05-04 05:59 55.62423 12.64714 28 ft 4 kts 99°
2026-05-04 05:59 55.62429 12.64669 27 ft 4 kts 114°
2026-05-04 05:59 55.62435 12.64649 26 ft 2 kts 123°
2026-05-04 06:03 55.62365 12.64773 28 ft 8 kts 172°
2026-05-04 06:03 55.62325 12.64708 28 ft 8 kts 246°
2026-05-04 06:05 55.61962 12.64143 28 ft 15 kts 205°
2026-05-04 06:05 55.61827 12.64076 29 ft 9 kts 178°
2026-05-04 06:05 55.61766 12.64083 29 ft 9 kts 176°
2026-05-04 06:06 55.61704 12.64090 30 ft 9 kts 176°
2026-05-04 06:06 55.61645 12.64091 32 ft 6 kts 191°
2026-05-04 06:06 55.61609 12.64045 31 ft 4 kts 222°
2026-05-04 06:06 55.61596 12.64023 31 ft 8 kts 222°
2026-05-04 06:07 55.61443 12.63786 30 ft 63 kts 221°
2026-05-04 06:07 55.60916 12.62970 29 ft 137 kts 221°
2026-05-04 06:07 55.60034 12.61605 42 ft 195 kts 220°
2026-05-04 06:07 55.58992 12.60047 790 ft 191 kts 222°
2026-05-04 06:08 55.57942 12.58479 1462 ft 205 kts 224°
2026-05-04 06:08 55.56851 12.56802 2098 ft 209 kts 226°
2026-05-04 06:08 55.55603 12.55447 2524 ft 217 kts 202°
2026-05-04 06:08 55.54147 12.54660 2977 ft 220 kts 203°
2026-05-04 06:09 55.52671 12.53782 3332 ft 233 kts 204°
2026-05-04 06:09 55.51097 12.52822 3656 ft 245 kts 204°
2026-05-04 06:11 55.39967 12.63701 6146 ft 372 kts 104°
2026-05-04 06:11 55.39312 12.68157 6784 ft 379 kts 107°
2026-05-04 06:13 55.33787 13.00377 11786 ft 408 kts 110°
2026-05-04 06:14 55.28619 13.29759 15605 ft 431 kts 111°
2026-05-04 06:14 55.27724 13.34808 16208 ft 435 kts 111°
2026-05-04 06:15 55.26822 13.39889 16813 ft 438 kts 111°
2026-05-04 06:15 55.25909 13.45012 17403 ft 442 kts 111°
2026-05-04 06:15 55.24993 13.50183 18013 ft 446 kts 109°
2026-05-04 06:15 55.24313 13.55527 18469 ft 453 kts 102°
2026-05-04 06:16 55.23876 13.61028 18984 ft 458 kts 99°
2026-05-04 06:16 55.23536 13.66580 19556 ft 459 kts 99°
2026-05-04 06:16 55.23212 13.72161 20125 ft 461 kts 99°
2026-05-04 06:16 55.22865 13.77765 20650 ft 464 kts 99°
2026-05-04 06:17 55.22488 13.83390 21147 ft 467 kts 100°
2026-05-04 06:17 55.22083 13.89043 21646 ft 469 kts 101°
2026-05-04 06:17 55.21657 13.94728 22132 ft 472 kts 101°
2026-05-04 06:17 55.21217 14.00443 22622 ft 475 kts 101°
2026-05-04 06:18 55.20773 14.06115 23090 ft 478 kts 101°
2026-05-04 06:18 55.20313 14.11966 23540 ft 481 kts 101°
2026-05-04 06:18 55.19852 14.17788 23930 ft 484 kts 101°
2026-05-04 06:20 55.16511 14.59213 26577 ft 499 kts 102°
2026-05-04 06:20 55.16021 14.65154 26910 ft 501 kts 102°
2026-05-04 06:21 55.13980 14.89469 28237 ft 510 kts 103°
2026-05-04 06:21 55.13458 14.95602 28528 ft 512 kts 103°
2026-05-04 06:22 55.12930 15.01760 28811 ft 513 kts 103°
2026-05-04 06:22 55.12397 15.07943 29073 ft 515 kts 103°
2026-05-04 06:25 55.05157 15.88439 30851 ft 513 kts 104°
2026-05-04 06:26 55.04005 16.00721 30854 ft 514 kts 104°
2026-05-04 06:26 55.03109 16.13121 30855 ft 518 kts 97°
2026-05-04 06:27 55.02126 16.44548 30860 ft 520 kts 98°
2026-05-04 06:28 55.01705 16.57134 30858 ft 520 kts 98°
2026-05-04 06:28 55.01274 16.69716 30860 ft 520 kts 98°
2026-05-04 06:29 55.00827 16.82286 30862 ft 520 kts 98°
2026-05-04 06:29 55.00366 16.94843 30860 ft 519 kts 98°
2026-05-04 06:30 54.99893 17.07393 30858 ft 519 kts 98°
2026-05-04 06:30 54.99407 17.19930 30863 ft 519 kts 98°
2026-05-04 06:31 54.98908 17.32463 30858 ft 519 kts 98°
2026-05-04 06:31 54.98397 17.44997 30857 ft 519 kts 98°
2026-05-04 06:33 54.96331 17.92990 30859 ft 518 kts 98°
2026-05-04 06:34 54.95674 18.07513 30858 ft 518 kts 98°
2026-05-04 06:34 54.95189 18.17979 30857 ft 518 kts 98°
2026-05-04 06:36 54.92757 18.67788 30852 ft 517 kts 98°
2026-05-04 06:37 54.92117 18.80247 30862 ft 517 kts 98°
2026-05-04 06:37 54.91466 18.92699 30861 ft 517 kts 98°
2026-05-04 06:38 54.91062 19.05188 30860 ft 518 kts 95°
2026-05-04 06:40 54.90109 19.55197 30863 ft 517 kts 95°
2026-05-04 06:40 54.89894 19.67678 30861 ft 517 kts 93°
2026-05-04 06:41 54.89882 19.80177 30862 ft 517 kts 92°
2026-05-04 06:41 54.89864 19.92669 30861 ft 517 kts 92°
2026-05-04 06:42 54.89796 20.05154 30859 ft 517 kts 93°
2026-05-04 06:44 54.89357 20.55021 30860 ft 515 kts 93°
2026-05-04 06:44 54.88661 20.67350 30857 ft 511 kts 103°
2026-05-04 06:45 54.87349 20.79473 30854 ft 511 kts 103°
2026-05-04 06:45 54.86034 20.91507 30856 ft 511 kts 103°
2026-05-04 06:46 54.84737 21.03627 30856 ft 511 kts 103°
2026-05-04 06:46 54.83446 21.15747 30855 ft 511 kts 103°
2026-05-04 06:48 54.78165 21.64091 30872 ft 510 kts 103°
2026-05-04 06:50 54.72697 22.12227 30880 ft 509 kts 103°
2026-05-04 06:51 54.71301 22.24241 30882 ft 509 kts 103°
2026-05-04 06:51 54.69893 22.36244 30893 ft 509 kts 103°
2026-05-04 06:52 54.68473 22.48236 30876 ft 509 kts 103°
2026-05-04 06:52 54.67043 22.60215 30877 ft 509 kts 103°
2026-05-04 06:53 54.65603 22.72182 30885 ft 509 kts 103°
2026-05-04 06:53 54.64419 22.84222 30898 ft 508 kts 99°
2026-05-04 06:54 54.63451 22.96312 30890 ft 509 kts 99°
2026-05-04 06:54 54.62478 23.08403 30890 ft 508 kts 99°
2026-05-04 06:55 54.61471 23.20473 30894 ft 508 kts 99°
2026-05-04 06:55 54.60442 23.32524 30892 ft 508 kts 99°
2026-05-04 06:57 54.56215 23.80578 30909 ft 506 kts 100°
2026-05-04 06:58 54.55130 23.92566 30911 ft 506 kts 100°
2026-05-04 06:58 54.54035 24.04526 30913 ft 506 kts 100°
2026-05-04 06:59 54.52936 24.16401 30922 ft 505 kts 100°
2026-05-04 06:59 54.51819 24.28335 30921 ft 505 kts 100°
2026-05-04 07:01 54.47238 24.75957 30936 ft 504 kts 100°
2026-05-04 07:02 54.46066 24.87828 30931 ft 504 kts 101°
2026-05-04 07:02 54.44881 24.99693 30943 ft 503 kts 101°
2026-05-04 07:03 54.43686 25.11540 30938 ft 503 kts 101°
2026-05-04 07:03 54.42480 25.23378 30941 ft 503 kts 101°
2026-05-04 07:04 54.41264 25.35202 30946 ft 503 kts 101°
2026-05-04 07:04 54.40038 25.47012 30937 ft 502 kts 101°
2026-05-04 07:05 54.38752 25.58786 30957 ft 502 kts 104°
2026-05-04 07:05 54.36662 25.70170 30972 ft 500 kts 110°
2026-05-04 07:06 54.33286 25.87093 30959 ft 500 kts 109°
2026-05-04 07:07 54.31066 25.98379 30961 ft 500 kts 109°
2026-05-04 07:09 54.22035 26.43266 30964 ft 498 kts 110°
2026-05-04 07:09 54.19758 26.54435 30963 ft 498 kts 110°
2026-05-04 07:10 54.17472 26.65585 30971 ft 497 kts 110°
2026-05-04 07:12 54.08238 27.09948 30971 ft 497 kts 110°
2026-05-04 07:12 54.05902 27.21018 30973 ft 497 kts 110°
2026-05-04 07:13 54.03557 27.32069 30977 ft 496 kts 110°
2026-05-04 07:13 54.01201 27.43107 30977 ft 496 kts 110°
2026-05-04 07:14 53.95278 27.70611 30992 ft 496 kts 110°
2026-05-04 07:15 53.92892 27.81585 30988 ft 496 kts 110°
2026-05-04 07:15 53.90498 27.92549 30996 ft 495 kts 110°
2026-05-04 07:16 53.88187 28.03530 30996 ft 495 kts 106°
2026-05-04 07:16 53.86646 28.14883 31006 ft 494 kts 102°
2026-05-04 07:17 53.85203 28.26269 30988 ft 494 kts 102°
2026-05-04 07:17 53.83725 28.37632 30995 ft 494 kts 102°
2026-05-04 07:18 53.82216 28.48960 30992 ft 493 kts 102°
2026-05-04 07:18 53.80691 28.60276 30999 ft 493 kts 102°
2026-05-04 07:19 53.79416 28.69670 30994 ft 493 kts 103°
2026-05-04 07:19 53.77875 28.80950 31000 ft 492 kts 103°
2026-05-04 07:20 53.76063 28.94121 30999 ft 492 kts 103°
2026-05-04 07:20 53.74767 29.03466 31009 ft 491 kts 103°
2026-05-04 07:22 53.68440 29.48295 31014 ft 490 kts 103°
2026-05-04 07:23 53.66845 29.59388 31019 ft 490 kts 103°
2026-05-04 07:23 53.65232 29.70540 31021 ft 489 kts 103°
2026-05-04 07:24 53.63608 29.81674 31015 ft 489 kts 103°
2026-05-04 07:24 53.61976 29.92789 31030 ft 489 kts 103°
2026-05-04 07:26 53.55356 30.37081 31008 ft 487 kts 103°
2026-05-04 07:27 53.53679 30.48112 31003 ft 487 kts 103°
2026-05-04 07:27 53.51993 30.59129 31000 ft 487 kts 103°
2026-05-04 07:28 53.50299 30.70132 30986 ft 486 kts 103°
2026-05-04 07:28 53.48595 30.81124 30993 ft 486 kts 103°
2026-05-04 07:29 53.46884 30.92107 30985 ft 486 kts 103°
2026-05-04 07:29 53.45169 31.03081 30994 ft 486 kts 103°
2026-05-04 07:30 53.43445 31.14041 30995 ft 486 kts 103°
2026-05-04 07:30 53.41709 31.24996 30988 ft 486 kts 103°
2026-05-04 07:31 53.39966 31.35938 30988 ft 486 kts 103°
2026-05-04 07:33 53.32882 31.79659 30996 ft 486 kts 104°
2026-05-04 07:33 53.31085 31.90566 30997 ft 487 kts 104°
2026-05-04 07:34 53.29280 32.01473 30997 ft 486 kts 104°
2026-05-04 07:34 53.27465 32.12357 31001 ft 486 kts 104°
2026-05-04 07:35 53.25639 32.23234 30995 ft 486 kts 104°
2026-05-04 07:35 53.23806 32.34100 31009 ft 486 kts 104°
2026-05-04 07:36 53.21977 32.44878 31000 ft 486 kts 104°
2026-05-04 07:38 53.15091 32.88337 31014 ft 484 kts 103°
2026-05-04 07:38 53.13354 32.99166 31002 ft 484 kts 103°
2026-05-04 07:39 53.11608 33.09970 31017 ft 483 kts 103°
2026-05-04 07:39 53.09854 33.20768 31021 ft 483 kts 103°
2026-05-04 07:40 53.08088 33.31562 31015 ft 484 kts 103°
2026-05-04 07:40 53.06313 33.42355 31026 ft 484 kts 103°
2026-05-04 07:41 53.04527 33.53143 31015 ft 484 kts 103°
2026-05-04 07:41 53.02730 33.63930 31020 ft 484 kts 103°
2026-05-04 07:42 53.00925 33.74698 31022 ft 484 kts 103°
2026-05-04 07:42 52.99111 33.85461 31022 ft 484 kts 104°
2026-05-04 07:43 52.97287 33.96203 31026 ft 484 kts 104°
2026-05-04 07:43 52.95452 34.06941 31020 ft 484 kts 104°
2026-05-04 07:44 52.93625 34.17583 31024 ft 483 kts 104°
2026-05-04 07:44 52.91778 34.28276 31021 ft 482 kts 104°
2026-05-04 07:45 52.89923 34.38957 31025 ft 482 kts 104°
2026-05-04 07:45 52.88058 34.49622 31020 ft 482 kts 104°
2026-05-04 07:46 52.86185 34.60286 31024 ft 482 kts 104°
2026-05-04 07:46 52.84303 34.70925 31019 ft 482 kts 104°
2026-05-04 07:47 52.82405 34.81555 31028 ft 482 kts 104°
2026-05-04 07:49 52.74738 35.23969 31030 ft 481 kts 105°
2026-05-04 07:49 52.72801 35.34537 31024 ft 481 kts 105°
2026-05-04 07:50 52.70857 35.45093 31031 ft 481 kts 105°
2026-05-04 07:50 52.68905 35.55630 31031 ft 481 kts 105°
2026-05-04 07:51 52.66955 35.66167 31030 ft 480 kts 105°
2026-05-04 07:51 52.65000 35.76687 31029 ft 480 kts 105°
2026-05-04 07:52 52.63038 35.87186 31027 ft 480 kts 105°
2026-05-04 07:52 52.61064 35.97680 31029 ft 480 kts 105°
2026-05-04 07:54 52.53075 36.39506 31019 ft 480 kts 105°
2026-05-04 07:55 52.51052 36.49942 31033 ft 480 kts 105°
2026-05-04 07:55 52.49020 36.60373 31037 ft 479 kts 106°
2026-05-04 07:56 52.46980 36.70781 31026 ft 480 kts 106°
2026-05-04 07:56 52.44930 36.81190 31028 ft 480 kts 106°
2026-05-04 07:57 52.42870 36.91591 31028 ft 480 kts 106°
2026-05-04 07:57 52.40804 37.01981 31022 ft 480 kts 106°
2026-05-04 07:58 52.38725 37.12371 31045 ft 480 kts 106°
2026-05-04 07:58 52.36662 37.22691 31033 ft 480 kts 106°
2026-05-04 07:59 52.34582 37.33076 31027 ft 481 kts 106°
2026-05-04 07:59 52.32489 37.43465 31035 ft 481 kts 106°
2026-05-04 08:00 52.30388 37.53845 31040 ft 481 kts 107°
2026-05-04 08:02 52.21870 37.95353 31039 ft 483 kts 107°
2026-05-04 08:02 52.19713 38.05727 31044 ft 483 kts 107°
2026-05-04 08:03 52.17549 38.16096 31044 ft 484 kts 107°
2026-05-04 08:03 52.15634 38.26579 31049 ft 482 kts 100°
2026-05-04 08:04 52.14856 38.37380 31059 ft 480 kts 91°
2026-05-04 08:04 52.14556 38.48237 31054 ft 480 kts 91°
2026-05-04 08:05 52.14220 38.59109 31048 ft 481 kts 91°
2026-05-04 08:05 52.13841 38.69994 31052 ft 482 kts 92°
2026-05-04 08:06 52.13450 38.80883 31042 ft 482 kts 92°
2026-05-04 08:06 52.13055 38.91775 31053 ft 482 kts 91°
2026-05-04 08:08 52.07272 39.27273 31060 ft 491 kts 144°
2026-05-04 08:08 52.05344 39.29332 31071 ft 491 kts 147°
2026-05-04 08:11 51.79062 39.56589 31070 ft 500 kts 146°
2026-05-04 08:11 51.73592 39.63447 31072 ft 497 kts 134°
2026-05-04 08:11 51.71242 39.67516 31073 ft 496 kts 129°
2026-05-04 08:12 51.67296 39.76476 31075 ft 494 kts 122°
2026-05-04 08:12 51.63497 39.85686 31071 ft 494 kts 122°
2026-05-04 08:13 51.59661 39.94853 31080 ft 494 kts 123°
2026-05-04 08:13 51.55792 40.03985 31080 ft 494 kts 123°
2026-05-04 08:14 51.51910 40.13100 31084 ft 495 kts 123°
2026-05-04 08:16 51.36299 40.49478 31088 ft 495 kts 123°
2026-05-04 08:16 51.32368 40.58526 31088 ft 496 kts 125°
2026-05-04 08:17 51.27853 40.66851 31095 ft 496 kts 133°
2026-05-04 08:17 51.23070 40.74801 31091 ft 497 kts 133°
2026-05-04 08:19 51.04090 41.06702 31097 ft 497 kts 132°
2026-05-04 08:20 50.99325 41.14651 31098 ft 497 kts 132°
2026-05-04 08:20 50.94556 41.22585 31096 ft 496 kts 132°
2026-05-04 08:21 50.89789 41.30491 31099 ft 496 kts 132°
2026-05-04 08:21 50.85016 41.38381 31100 ft 496 kts 132°
2026-05-04 08:22 50.80245 41.46251 31101 ft 496 kts 132°
2026-05-04 08:24 50.61121 41.77569 31106 ft 496 kts 133°
2026-05-04 08:24 50.56335 41.85387 31098 ft 496 kts 133°
2026-05-04 08:25 50.51536 41.93197 31084 ft 497 kts 133°
2026-05-04 08:25 50.46730 42.00993 31086 ft 497 kts 133°
2026-05-04 08:27 50.26876 42.31184 31116 ft 500 kts 137°
2026-05-04 08:28 50.21657 42.38390 31095 ft 501 kts 137°
2026-05-04 08:28 50.16438 42.45619 31093 ft 502 kts 137°
2026-05-04 08:29 50.11213 42.52850 31090 ft 503 kts 137°
2026-05-04 08:31 49.90237 42.81659 31088 ft 504 kts 139°
2026-05-04 08:33 49.69114 43.10317 31100 ft 506 kts 140°
2026-05-04 08:35 49.47764 43.38937 31085 ft 511 kts 141°
2026-05-04 08:35 49.42390 43.46087 31080 ft 511 kts 141°
2026-05-04 08:37 49.23527 43.71092 31080 ft 513 kts 141°
2026-05-04 08:38 49.18273 43.78497 31072 ft 513 kts 140°
2026-05-04 08:38 49.13045 43.85928 31075 ft 513 kts 141°
2026-05-04 08:40 48.91983 44.15263 31064 ft 514 kts 142°
2026-05-04 08:41 48.86729 44.22523 31068 ft 515 kts 142°
2026-05-04 08:41 48.81396 44.29892 31088 ft 516 kts 141°
2026-05-04 08:42 48.76681 44.38104 31086 ft 523 kts 130°
2026-05-04 08:42 48.72838 44.47527 31082 ft 527 kts 124°
2026-05-04 08:43 48.69130 44.57183 31077 ft 526 kts 124°
2026-05-04 08:43 48.65406 44.66625 31069 ft 526 kts 125°
2026-05-04 08:44 48.61642 44.76097 31063 ft 525 kts 125°
2026-05-04 08:46 48.46596 45.13754 31057 ft 523 kts 125°
2026-05-04 08:46 48.41982 45.21803 31060 ft 500 kts 153°
2026-05-04 08:46 48.38889 45.24008 31069 ft 487 kts 169°
2026-05-04 08:47 48.35597 45.25021 31070 ft 482 kts 179°
2026-05-04 08:47 48.29022 45.24439 31041 ft 465 kts 202°
2026-05-04 08:48 48.22903 45.21256 31062 ft 467 kts 203°
2026-05-04 08:48 48.16712 45.18142 31059 ft 471 kts 202°
2026-05-04 08:49 48.10470 45.15138 31053 ft 471 kts 202°
2026-05-04 08:50 47.91419 45.19412 31055 ft 494 kts 156°
2026-05-04 08:50 47.88372 45.21794 31058 ft 495 kts 157°
2026-05-04 08:51 47.82248 45.26487 31057 ft 495 kts 157°
2026-05-04 08:51 47.76138 45.31064 31050 ft 495 kts 158°
2026-05-04 08:52 47.69986 45.35631 31043 ft 494 kts 158°
2026-05-04 08:52 47.63855 45.40176 31049 ft 492 kts 157°
2026-05-04 08:54 47.39541 45.58099 31041 ft 486 kts 157°
2026-05-04 08:55 47.33491 45.62532 31044 ft 485 kts 157°
2026-05-04 08:55 47.28428 45.66234 31038 ft 484 kts 156°
2026-05-04 08:57 47.15188 45.95068 31027 ft 505 kts 118°
2026-05-04 09:01 46.91382 46.57544 31009 ft 497 kts 126°
2026-05-04 09:01 46.87658 46.66063 31003 ft 497 kts 126°
2026-05-04 09:02 46.83925 46.74572 30997 ft 497 kts 126°
2026-05-04 09:02 46.80185 46.83066 30994 ft 497 kts 126°
2026-05-04 09:03 46.76438 46.91551 30989 ft 497 kts 126°
2026-05-04 09:03 46.72687 47.00022 30985 ft 497 kts 126°
2026-05-04 09:04 46.68930 47.08482 30981 ft 497 kts 126°
2026-05-04 09:04 46.65216 47.16975 30976 ft 497 kts 125°
2026-05-04 09:05 46.61520 47.25473 30971 ft 497 kts 125°
2026-05-04 09:05 46.57818 47.33944 30975 ft 496 kts 125°
2026-05-04 09:06 46.54104 47.42402 30972 ft 496 kts 125°
2026-05-04 09:08 46.39205 47.76062 30959 ft 495 kts 125°
2026-05-04 09:08 46.35469 47.84442 30966 ft 495 kts 125°
2026-05-04 09:09 46.31730 47.92807 30968 ft 495 kts 125°
2026-05-04 09:09 46.28477 48.01592 30964 ft 498 kts 114°
2026-05-04 09:10 46.26429 48.11099 30969 ft 500 kts 104°
2026-05-04 09:10 46.25000 48.20938 30965 ft 501 kts 103°
2026-05-04 09:11 46.23541 48.30791 30956 ft 502 kts 104°
2026-05-04 09:11 46.22029 48.40627 30947 ft 502 kts 104°
2026-05-04 09:12 46.20504 48.50459 30944 ft 502 kts 104°
2026-05-04 09:14 46.02223 48.78210 30948 ft 491 kts 145°
2026-05-04 09:14 45.96747 48.84106 30948 ft 492 kts 145°
2026-05-04 09:15 45.91271 48.90001 30941 ft 492 kts 145°
2026-05-04 09:15 45.85796 48.95874 30937 ft 490 kts 144°
2026-05-04 09:17 45.62016 49.23387 30936 ft 487 kts 143°
2026-05-04 09:18 45.56739 49.29431 30930 ft 486 kts 143°
2026-05-04 09:18 45.51456 49.35470 31026 ft 489 kts 143°
2026-05-04 09:19 45.48804 49.38497 31336 ft 487 kts 143°
2026-05-04 09:19 45.46165 49.41507 31740 ft 484 kts 143°
2026-05-04 09:19 45.43545 49.44492 32148 ft 481 kts 143°
2026-05-04 09:19 45.41818 49.46457 32407 ft 479 kts 143°
2026-05-04 09:20 45.39331 49.49284 32664 ft 472 kts 144°
2026-05-04 09:20 45.36749 49.52175 32661 ft 474 kts 144°
2026-05-04 09:20 45.31461 49.57880 32844 ft 479 kts 145°
2026-05-04 09:21 45.26138 49.63568 32926 ft 477 kts 145°
2026-05-04 09:21 45.20486 49.69625 32929 ft 475 kts 145°
2026-05-04 09:22 44.99449 49.92112 32911 ft 473 kts 145°
2026-05-04 09:22 44.78415 50.14385 32905 ft 473 kts 145°
2026-05-04 09:23 44.57124 50.36212 32920 ft 475 kts 146°
2026-05-04 09:23 44.35651 50.57990 32917 ft 478 kts 147°
2026-05-04 09:25 43.53974 51.54003 32879 ft 486 kts 137°
2026-05-04 09:26 43.35107 51.80693 32882 ft 487 kts 137°
2026-05-04 09:26 43.15949 52.06980 32891 ft 488 kts 138°
2026-05-04 09:27 42.96628 52.33101 32906 ft 489 kts 139°
2026-05-04 09:27 42.77188 52.59144 32913 ft 491 kts 139°
2026-05-04 09:28 42.57605 52.85135 32911 ft 493 kts 139°
2026-05-04 09:28 42.37896 53.11053 32912 ft 495 kts 140°
2026-05-04 09:29 42.19410 53.38689 32873 ft 505 kts 126°
2026-05-04 09:29 42.04157 53.70449 32939 ft 505 kts 127°
2026-05-04 09:30 41.88708 54.02011 32930 ft 507 kts 127°
2026-05-04 09:30 41.73126 54.33523 32908 ft 508 kts 127°
2026-05-04 09:31 41.57429 54.64941 32905 ft 508 kts 127°
2026-05-04 09:31 41.41750 54.96002 32905 ft 508 kts 128°
2026-05-04 09:32 41.25843 55.27198 32899 ft 509 kts 128°
2026-05-04 09:34 40.61193 56.50671 32916 ft 512 kts 128°
2026-05-04 09:34 40.44755 56.81295 32929 ft 513 kts 128°
2026-05-04 09:35 40.28229 57.11831 32929 ft 514 kts 128°
2026-05-04 09:35 40.09527 57.39706 32938 ft 510 kts 137°
2026-05-04 09:37 39.30214 58.44880 32923 ft 511 kts 136°
2026-05-04 09:38 39.10385 58.71197 32921 ft 512 kts 137°
2026-05-04 09:38 38.90293 58.97227 32917 ft 513 kts 137°
2026-05-04 09:39 38.70068 59.23143 32918 ft 515 kts 137°
2026-05-04 09:39 38.53380 59.52830 32861 ft 524 kts 116°
2026-05-04 09:40 38.40905 59.86486 32897 ft 525 kts 117°
2026-05-04 09:40 38.28230 60.20042 32933 ft 526 kts 117°
2026-05-04 09:42 37.78563 61.48124 32964 ft 529 kts 117°
2026-05-04 09:43 37.65339 61.81361 32999 ft 530 kts 117°
2026-05-04 09:43 37.57667 61.97192 32971 ft 530 kts 128°
2026-05-04 09:43 37.48796 62.12009 32988 ft 529 kts 127°
2026-05-04 09:44 37.31218 62.41724 32977 ft 530 kts 127°
2026-05-04 09:46 36.60078 63.59333 32967 ft 530 kts 128°
2026-05-04 09:46 36.42116 63.88393 32962 ft 530 kts 128°
2026-05-04 09:47 36.24229 64.17089 32959 ft 529 kts 128°
2026-05-04 09:49 35.53846 65.33586 33058 ft 530 kts 127°
2026-05-04 09:51 34.91621 66.33990 33037 ft 530 kts 128°
2026-05-04 09:51 34.73528 66.62384 33017 ft 531 kts 128°
2026-05-04 09:52 34.55354 66.90708 33007 ft 531 kts 128°
2026-05-04 09:52 34.37075 67.18851 32988 ft 531 kts 128°
2026-05-04 09:53 34.18775 67.46813 33021 ft 529 kts 129°
2026-05-04 09:53 34.00359 67.74738 32997 ft 534 kts 129°
2026-05-04 09:54 33.81610 68.02587 32961 ft 537 kts 129°
2026-05-04 09:54 33.62679 68.30458 32908 ft 540 kts 129°
2026-05-04 09:55 33.43384 68.58070 32852 ft 539 kts 131°
2026-05-04 09:55 33.24109 68.85505 32852 ft 538 kts 128°
2026-05-04 09:56 33.05879 69.13845 32873 ft 538 kts 128°
2026-05-04 09:56 32.87592 69.41934 32857 ft 536 kts 128°
2026-05-04 09:57 32.69186 69.69891 32870 ft 536 kts 128°
2026-05-04 09:57 32.50772 69.97657 32815 ft 534 kts 128°
2026-05-04 09:58 32.32435 70.25272 32783 ft 533 kts 127°
2026-05-04 09:58 32.14416 70.53120 32761 ft 534 kts 128°
2026-05-04 10:00 31.60518 71.56548 32758 ft 528 kts 117°
2026-05-04 10:00 31.53669 71.71523 32747 ft 527 kts 118°
2026-05-04 10:04 31.13114 72.52356 32722 ft 527 kts 126°
2026-05-04 10:04 31.08875 72.59343 32717 ft 528 kts 126°
2026-05-04 10:05 31.04636 72.66332 32730 ft 528 kts 126°
2026-05-04 10:05 31.00387 72.73313 32724 ft 528 kts 126°
2026-05-04 10:06 30.96135 72.80287 32726 ft 528 kts 126°
2026-05-04 10:06 30.91883 72.87246 32706 ft 527 kts 126°
2026-05-04 10:08 30.77051 73.11431 32725 ft 523 kts 126°
2026-05-04 10:08 30.72820 73.18305 32718 ft 522 kts 127°
2026-05-04 10:09 30.68593 73.25162 32723 ft 522 kts 127°
2026-05-04 10:09 30.64368 73.32006 32723 ft 521 kts 127°
2026-05-04 10:10 30.60146 73.38841 32723 ft 521 kts 127°
2026-05-04 10:10 30.55923 73.45670 32720 ft 521 kts 127°
2026-05-04 10:11 30.51726 73.52445 32726 ft 521 kts 127°
2026-05-04 10:11 30.47496 73.59260 32727 ft 521 kts 127°
2026-05-04 10:12 30.43263 73.66069 32725 ft 521 kts 127°
2026-05-04 10:12 30.39030 73.72869 32722 ft 520 kts 127°
2026-05-04 10:13 30.34799 73.79652 32719 ft 519 kts 127°
2026-05-04 10:13 30.30573 73.86417 32719 ft 518 kts 127°
2026-05-04 10:14 30.26352 73.93163 32721 ft 517 kts 128°
2026-05-04 10:16 30.09499 74.20005 32721 ft 515 kts 128°
2026-05-04 10:16 30.05289 74.26689 32725 ft 515 kts 128°
2026-05-04 10:17 30.01070 74.33372 32730 ft 515 kts 128°
2026-05-04 10:19 29.84126 74.60109 32744 ft 516 kts 129°
2026-05-04 10:19 29.79882 74.66778 32754 ft 516 kts 129°
2026-05-04 10:20 29.75638 74.73436 32754 ft 516 kts 129°
2026-05-04 10:20 29.71394 74.80085 32755 ft 515 kts 129°
2026-05-04 10:21 29.67151 74.86720 32762 ft 514 kts 130°
2026-05-04 10:21 29.62917 74.93330 32764 ft 513 kts 130°
2026-05-04 10:22 29.56576 75.03211 32770 ft 511 kts 130°
2026-05-04 10:23 29.52358 75.09770 32774 ft 510 kts 130°
2026-05-04 10:25 29.35475 75.35923 32795 ft 511 kts 130°
2026-05-04 10:25 29.31228 75.42468 32797 ft 512 kts 130°
2026-05-04 10:26 29.26954 75.48997 32804 ft 512 kts 130°
2026-05-04 10:26 29.22672 75.55518 32805 ft 512 kts 130°
2026-05-04 10:27 29.18395 75.62031 32800 ft 512 kts 130°
2026-05-04 10:27 29.14119 75.68536 32803 ft 511 kts 130°
2026-05-04 10:28 29.10569 75.73930 32803 ft 511 kts 130°
2026-05-04 10:28 29.05563 75.81523 32812 ft 513 kts 130°
2026-05-04 10:29 29.01974 75.86957 33101 ft 516 kts 130°
2026-05-04 10:29 28.99813 75.90227 33421 ft 515 kts 130°
2026-05-04 10:29 28.97661 75.93481 33706 ft 515 kts 130°
2026-05-04 10:29 28.95493 75.96756 33911 ft 516 kts 130°
2026-05-04 10:30 28.92619 76.01094 34144 ft 518 kts 130°
2026-05-04 10:30 28.91150 76.03308 34272 ft 518 kts 130°
2026-05-04 10:30 28.88971 76.06591 34471 ft 519 kts 130°
2026-05-04 10:30 28.86084 76.10939 34705 ft 520 kts 130°
2026-05-04 10:31 28.84605 76.13163 34725 ft 521 kts 131°
2026-05-04 10:32 28.69247 76.36202 34794 ft 522 kts 131°
2026-05-04 10:33 28.64843 76.42783 34805 ft 523 kts 131°
2026-05-04 10:33 28.60425 76.49375 34797 ft 524 kts 132°
2026-05-04 10:34 28.55994 76.55976 34794 ft 526 kts 132°
2026-05-04 10:34 28.51545 76.62595 34792 ft 527 kts 132°
2026-05-04 10:35 28.47085 76.69220 34799 ft 528 kts 132°
2026-05-04 10:35 28.42616 76.75849 34797 ft 529 kts 133°
2026-05-04 10:36 28.38142 76.82474 34803 ft 528 kts 133°
2026-05-04 10:36 28.33667 76.89090 34804 ft 528 kts 133°
2026-05-04 10:37 28.29192 76.95695 34806 ft 528 kts 133°
2026-05-04 10:37 28.24717 77.02292 34798 ft 527 kts 133°
2026-05-04 10:39 28.09056 77.25292 34800 ft 526 kts 133°
2026-05-04 10:40 28.04580 77.31842 34791 ft 526 kts 133°
2026-05-04 10:40 28.00102 77.38388 34795 ft 526 kts 133°
2026-05-04 10:41 27.95619 77.44928 34785 ft 526 kts 133°
2026-05-04 10:41 27.91132 77.51466 34786 ft 526 kts 133°
2026-05-04 10:42 27.86647 77.57990 34791 ft 526 kts 133°
2026-05-04 10:42 27.82154 77.64517 34775 ft 526 kts 133°
2026-05-04 10:43 27.77658 77.71037 34782 ft 526 kts 133°
2026-05-04 10:45 27.59627 77.97091 34769 ft 529 kts 134°
2026-05-04 10:45 27.55091 78.03621 34891 ft 529 kts 134°
2026-05-04 10:46 27.50559 78.10135 34800 ft 528 kts 133°
2026-05-04 10:46 27.46047 78.16614 34760 ft 523 kts 133°
2026-05-04 10:47 27.41569 78.23033 34754 ft 519 kts 134°
2026-05-04 10:47 27.37125 78.29394 34748 ft 516 kts 134°
2026-05-04 10:49 27.19344 78.54738 34749 ft 519 kts 134°
2026-05-04 10:50 27.14866 78.61099 34747 ft 520 kts 134°
2026-05-04 10:52 26.96932 78.86492 34725 ft 517 kts 134°
2026-05-04 10:52 26.92460 78.92800 34730 ft 516 kts 134°
2026-05-04 10:54 26.74576 79.17935 34732 ft 516 kts 135°
2026-05-04 10:56 26.56616 79.43039 34728 ft 517 kts 135°
2026-05-04 10:57 26.52114 79.49309 34730 ft 517 kts 135°
2026-05-04 10:57 26.47610 79.55574 34724 ft 518 kts 135°
2026-05-04 10:58 26.43100 79.61839 34724 ft 518 kts 135°
2026-05-04 10:58 26.38590 79.68096 34729 ft 517 kts 135°
2026-05-04 10:59 26.34075 79.74350 34732 ft 517 kts 135°
2026-05-04 10:59 26.29560 79.80595 34728 ft 517 kts 135°
2026-05-04 11:00 26.25045 79.86832 34731 ft 517 kts 135°
2026-05-04 11:02 26.07038 80.11623 34745 ft 515 kts 136°
2026-05-04 11:05 25.73982 80.58698 34747 ft 515 kts 134°
2026-05-04 11:06 25.69615 80.64993 34743 ft 515 kts 134°
2026-05-04 11:06 25.65248 80.71282 34734 ft 514 kts 134°
2026-05-04 11:10 25.34635 81.15140 34720 ft 515 kts 134°
2026-05-04 11:12 25.17087 81.40104 34730 ft 514 kts 135°
2026-05-04 11:12 25.12702 81.46331 34732 ft 513 kts 134°
2026-05-04 11:13 25.08360 81.52582 34729 ft 513 kts 134°
2026-05-04 11:13 25.04037 81.58829 34738 ft 512 kts 134°
2026-05-04 11:16 24.83162 81.88793 34756 ft 508 kts 134°
2026-05-04 11:16 24.78854 81.94951 34751 ft 507 kts 134°
2026-05-04 11:17 24.74547 82.01099 34756 ft 507 kts 134°
2026-05-04 11:19 24.57285 82.25661 34761 ft 510 kts 134°
2026-05-04 11:19 24.52933 82.31834 34776 ft 512 kts 134°
2026-05-04 11:20 24.48565 82.38023 34777 ft 513 kts 134°
2026-05-04 11:20 24.44209 82.44184 34763 ft 516 kts 131°
2026-05-04 11:22 24.26374 82.69344 34773 ft 526 kts 131°
2026-05-04 11:23 24.21884 82.75659 34780 ft 524 kts 131°
2026-05-04 11:25 24.06285 82.97528 34784 ft 517 kts 131°
2026-05-04 11:25 24.01857 83.03718 34781 ft 516 kts 131°
2026-05-04 11:27 23.81909 83.31509 34803 ft 518 kts 131°
2026-05-04 11:28 23.77456 83.37695 34806 ft 518 kts 131°
2026-05-04 11:28 23.73010 83.43827 34810 ft 518 kts 133°
2026-05-04 11:29 23.68179 83.49625 34817 ft 516 kts 136°
2026-05-04 11:29 23.63265 83.55327 34811 ft 516 kts 136°
2026-05-04 11:33 23.29169 83.95189 34868 ft 512 kts 136°
2026-05-04 11:33 23.24308 84.00851 34878 ft 512 kts 136°
2026-05-04 11:34 23.19443 84.06514 34879 ft 513 kts 136°
2026-05-04 11:34 23.14569 84.12179 34894 ft 513 kts 136°
2026-05-04 11:35 23.09691 84.17842 34877 ft 514 kts 136°
2026-05-04 11:35 23.04806 84.23509 34891 ft 514 kts 136°
2026-05-04 11:36 22.99912 84.29178 34889 ft 515 kts 136°
2026-05-04 11:36 22.95013 84.34847 34893 ft 515 kts 136°
2026-05-04 11:37 22.90102 84.40523 34887 ft 517 kts 136°
2026-05-04 11:37 22.85174 84.46214 34883 ft 518 kts 136°
2026-05-04 11:38 22.80232 84.51914 34879 ft 520 kts 136°
2026-05-04 11:38 22.75265 84.57638 34872 ft 522 kts 136°
2026-05-04 11:39 22.70316 84.63326 34850 ft 522 kts 136°
2026-05-04 11:41 22.52882 84.83319 34792 ft 521 kts 136°
2026-05-04 11:41 22.47944 84.89042 34796 ft 520 kts 136°
2026-05-04 11:42 22.43038 84.94785 34781 ft 520 kts 136°
2026-05-04 11:42 22.38129 85.00523 34785 ft 519 kts 136°
2026-05-04 11:43 22.33218 85.06246 34800 ft 519 kts 136°
2026-05-04 11:43 22.28306 85.11956 34815 ft 519 kts 136°
2026-05-04 11:44 22.23392 85.17664 34831 ft 519 kts 136°
2026-05-04 11:44 22.18479 85.23363 34837 ft 519 kts 136°
2026-05-04 11:45 22.13566 85.29059 34848 ft 518 kts 136°
2026-05-04 11:45 22.08656 85.34743 34849 ft 518 kts 136°
2026-05-04 11:46 22.03745 85.40422 34854 ft 518 kts 136°
2026-05-04 11:46 21.98831 85.46099 34849 ft 518 kts 136°
2026-05-04 11:47 21.93913 85.51775 34847 ft 518 kts 136°
2026-05-04 11:47 21.88997 85.57442 34839 ft 518 kts 136°
2026-05-04 11:48 21.84080 85.63103 34841 ft 518 kts 136°
2026-05-04 11:48 21.79163 85.68760 34837 ft 517 kts 136°
2026-05-04 11:49 21.74246 85.74409 34815 ft 517 kts 136°
2026-05-04 11:49 21.69333 85.80049 34817 ft 516 kts 137°
2026-05-04 11:50 21.64420 85.85682 34811 ft 516 kts 137°
2026-05-04 11:50 21.59511 85.91304 34818 ft 516 kts 137°
2026-05-04 11:51 21.54598 85.96925 34812 ft 516 kts 137°
2026-05-04 11:51 21.49684 86.02541 34808 ft 516 kts 137°
2026-05-04 11:52 21.44765 86.08157 34808 ft 516 kts 137°
2026-05-04 11:52 21.39846 86.13767 34807 ft 516 kts 137°
2026-05-04 11:53 21.34923 86.19376 34800 ft 516 kts 136°
2026-05-04 11:53 21.30000 86.24978 34801 ft 516 kts 137°
2026-05-04 11:55 21.10318 86.47321 34785 ft 515 kts 136°
2026-05-04 11:56 21.05398 86.52892 34786 ft 514 kts 136°
2026-05-04 11:56 21.00481 86.58454 34787 ft 515 kts 136°
2026-05-04 11:57 20.95558 86.64016 34782 ft 515 kts 136°
2026-05-04 11:57 20.90636 86.69573 34789 ft 515 kts 136°
2026-05-04 11:58 20.85709 86.75131 34790 ft 515 kts 136°
2026-05-04 11:58 20.80783 86.80692 34792 ft 515 kts 136°
2026-05-04 11:59 20.75922 86.86321 34791 ft 516 kts 135°
2026-05-04 11:59 20.71070 86.91968 34796 ft 516 kts 136°
2026-05-04 12:00 20.66206 86.97597 34795 ft 515 kts 136°
2026-05-04 12:00 20.61353 87.03233 34794 ft 516 kts 135°
2026-05-04 12:01 20.57353 87.07947 34797 ft 515 kts 135°
2026-05-04 12:02 20.39608 87.28643 34800 ft 515 kts 136°
2026-05-04 12:03 20.35555 87.33287 34817 ft 515 kts 136°
2026-05-04 12:03 20.30676 87.38882 34816 ft 515 kts 136°
2026-05-04 12:04 20.25802 87.44476 34807 ft 515 kts 136°
2026-05-04 12:04 20.20924 87.50071 34812 ft 515 kts 136°
2026-05-04 12:05 20.16045 87.55661 34818 ft 516 kts 136°
2026-05-04 12:05 20.11157 87.61255 34823 ft 516 kts 136°
2026-05-04 12:06 20.06268 87.66845 34812 ft 516 kts 136°
2026-05-04 12:06 20.01374 87.72434 34819 ft 516 kts 136°
2026-05-04 12:07 19.96475 87.78025 34821 ft 517 kts 136°
2026-05-04 12:07 19.91575 87.83610 34824 ft 517 kts 136°
2026-05-04 12:08 19.86669 87.89198 34821 ft 517 kts 136°
2026-05-04 12:08 19.81760 87.94783 34825 ft 517 kts 136°
2026-05-04 12:09 19.76851 88.00363 34827 ft 517 kts 136°
2026-05-04 12:09 19.71937 88.05943 34824 ft 517 kts 136°
2026-05-04 12:10 19.67027 88.11514 34825 ft 517 kts 136°
2026-05-04 12:10 19.62147 88.17044 34829 ft 517 kts 136°
2026-05-04 12:11 19.57238 88.22602 34830 ft 516 kts 136°
2026-05-04 12:11 19.52326 88.28159 34831 ft 516 kts 136°
2026-05-04 12:12 19.47417 88.33708 34834 ft 516 kts 136°
2026-05-04 12:12 19.42506 88.39252 34833 ft 516 kts 136°
2026-05-04 12:14 19.22851 88.61394 34840 ft 516 kts 135°
2026-05-04 12:15 19.17929 88.66925 34839 ft 516 kts 136°
2026-05-04 12:15 19.12923 88.72364 34841 ft 516 kts 137°
2026-05-04 12:16 19.07866 88.77748 34843 ft 516 kts 137°
2026-05-04 12:16 19.02810 88.83140 34840 ft 516 kts 137°
2026-05-04 12:17 18.97769 88.88539 34842 ft 516 kts 137°
2026-05-04 12:17 18.92731 88.93939 34844 ft 516 kts 137°
2026-05-04 12:18 18.87690 88.99337 34846 ft 516 kts 136°
2026-05-04 12:18 18.82649 89.04729 34846 ft 516 kts 136°
2026-05-04 12:19 18.77611 89.10112 34845 ft 515 kts 136°
2026-05-04 12:19 18.72573 89.15489 34848 ft 515 kts 136°
2026-05-04 12:20 18.67535 89.20861 34851 ft 515 kts 136°
2026-05-04 12:20 18.62500 89.26226 34847 ft 515 kts 136°
2026-05-04 12:21 18.57463 89.31589 34848 ft 515 kts 136°
2026-05-04 12:21 18.52424 89.36948 34849 ft 515 kts 136°
2026-05-04 12:22 18.47384 89.42303 34850 ft 515 kts 136°
2026-05-04 12:22 18.42376 89.47621 34849 ft 515 kts 136°
2026-05-04 12:23 18.37330 89.52973 34848 ft 515 kts 136°
2026-05-04 12:23 18.32283 89.58323 34848 ft 515 kts 136°
2026-05-04 12:24 18.27236 89.63668 34849 ft 515 kts 136°
2026-05-04 12:24 18.22182 89.69014 34851 ft 515 kts 136°
2026-05-04 12:25 18.17131 89.74354 34851 ft 515 kts 136°
2026-05-04 12:25 18.12077 89.79691 34851 ft 515 kts 136°
2026-05-04 12:26 18.07023 89.85025 34852 ft 515 kts 136°
2026-05-04 12:26 18.01963 89.90360 34852 ft 515 kts 136°
2026-05-04 12:27 17.96902 89.95691 34851 ft 515 kts 136°
2026-05-04 12:27 17.91839 90.01020 34851 ft 515 kts 136°
2026-05-04 12:28 17.86772 90.06349 34852 ft 515 kts 136°
2026-05-04 12:28 17.81703 90.11675 34852 ft 515 kts 136°
2026-05-04 12:29 17.76636 90.16995 34851 ft 515 kts 136°
2026-05-04 12:29 17.71602 90.22275 34849 ft 515 kts 136°
2026-05-04 12:30 17.66502 90.27621 34853 ft 515 kts 137°
2026-05-04 12:30 17.61468 90.32893 34855 ft 515 kts 137°
2026-05-04 12:31 17.56401 90.38195 34854 ft 515 kts 137°
2026-05-04 12:31 17.51337 90.43489 34855 ft 514 kts 137°
2026-05-04 12:32 17.43740 90.51426 34856 ft 514 kts 137°
2026-05-04 12:33 17.38684 90.56717 34858 ft 514 kts 136°
2026-05-04 12:33 17.33682 90.62059 34859 ft 514 kts 136°
2026-05-04 12:34 17.28695 90.67411 34858 ft 513 kts 136°
2026-05-04 12:34 17.23702 90.72754 34859 ft 513 kts 136°
2026-05-04 12:35 17.18706 90.78084 34858 ft 513 kts 136°
2026-05-04 12:35 17.13707 90.83410 34862 ft 513 kts 136°
2026-05-04 12:36 17.08710 90.88730 34859 ft 513 kts 136°
2026-05-04 12:36 17.03714 90.94045 34865 ft 513 kts 136°
2026-05-04 12:37 16.98718 90.99356 34862 ft 512 kts 136°
2026-05-04 12:37 16.93722 91.04663 34863 ft 512 kts 136°
2026-05-04 12:38 16.88727 91.09965 34863 ft 512 kts 136°
2026-05-04 12:38 16.83732 91.15262 34864 ft 512 kts 136°
2026-05-04 12:39 16.78740 91.20552 34865 ft 511 kts 136°
2026-05-04 12:39 16.73745 91.25841 34862 ft 511 kts 136°
2026-05-04 12:40 16.68751 91.31125 34864 ft 511 kts 136°
2026-05-04 12:40 16.63758 91.36404 34864 ft 511 kts 136°
2026-05-04 12:41 16.58763 91.41680 34862 ft 511 kts 136°
2026-05-04 12:41 16.53765 91.46955 34864 ft 511 kts 136°
2026-05-04 12:42 16.48801 91.52190 34864 ft 511 kts 136°
2026-05-04 12:42 16.43805 91.57456 34862 ft 511 kts 136°
2026-05-04 12:43 16.38802 91.62724 34864 ft 511 kts 136°
2026-05-04 12:43 16.33801 91.67986 34862 ft 511 kts 136°
2026-05-04 12:44 16.28797 91.73248 34861 ft 511 kts 136°
2026-05-04 12:44 16.23794 91.78505 34864 ft 511 kts 136°
2026-05-04 12:45 16.18790 91.83758 34865 ft 511 kts 136°
2026-05-04 12:45 16.13786 91.89008 34865 ft 511 kts 136°
2026-05-04 12:46 16.08783 91.94254 34863 ft 511 kts 136°
2026-05-04 12:46 16.03780 91.99495 34865 ft 510 kts 136°
2026-05-04 12:47 15.98778 92.04730 34863 ft 510 kts 136°
2026-05-04 12:47 15.93777 92.09962 34864 ft 510 kts 136°
2026-05-04 12:48 15.88776 92.15191 34868 ft 510 kts 136°
2026-05-04 12:48 15.83777 92.20415 34866 ft 510 kts 136°
2026-05-04 12:49 15.79618 92.24759 34867 ft 510 kts 136°
2026-05-04 12:49 15.73765 92.30867 34868 ft 510 kts 136°
2026-05-04 12:50 15.69602 92.35209 34867 ft 511 kts 136°
2026-05-04 12:50 15.64589 92.40433 34860 ft 511 kts 136°
2026-05-04 12:51 15.59574 92.45655 34867 ft 511 kts 136°
2026-05-04 12:51 15.54557 92.50876 34863 ft 511 kts 136°
2026-05-04 12:52 15.49537 92.56097 34868 ft 511 kts 136°
2026-05-04 12:52 15.44520 92.61312 34865 ft 511 kts 136°
2026-05-04 12:53 15.39541 92.66575 34870 ft 511 kts 135°
2026-05-04 12:53 15.34671 92.71952 34868 ft 511 kts 134°
2026-05-04 12:54 15.29815 92.77341 34860 ft 511 kts 134°
2026-05-04 12:54 15.24943 92.82710 34870 ft 511 kts 135°
2026-05-04 12:55 15.20064 92.88062 34869 ft 511 kts 135°
2026-05-04 12:55 15.15175 92.93417 34864 ft 512 kts 135°
2026-05-04 12:56 15.10281 92.98773 34862 ft 512 kts 135°
2026-05-04 12:56 15.05391 93.04125 34864 ft 512 kts 135°
2026-05-04 12:57 15.00496 93.09477 34863 ft 512 kts 135°
2026-05-04 12:57 14.95600 93.14827 34871 ft 512 kts 135°
2026-05-04 12:58 14.90700 93.20178 34869 ft 513 kts 135°
2026-05-04 12:58 14.85796 93.25529 34871 ft 513 kts 135°
2026-05-04 12:59 14.80890 93.30879 34869 ft 513 kts 135°
2026-05-04 12:59 14.75981 93.36228 34881 ft 513 kts 135°
2026-05-04 13:00 14.71065 93.41579 34866 ft 513 kts 135°
2026-05-04 13:00 14.66153 93.46925 34867 ft 513 kts 135°
2026-05-04 13:01 14.61239 93.52268 34870 ft 513 kts 135°
2026-05-04 13:01 14.56323 93.57610 34879 ft 513 kts 135°
2026-05-04 13:02 14.51408 93.62946 34878 ft 513 kts 135°
2026-05-04 13:02 14.46488 93.68285 34877 ft 513 kts 135°
2026-05-04 13:03 14.41602 93.73583 34874 ft 513 kts 135°
2026-05-04 13:03 14.36686 93.78911 34875 ft 513 kts 135°
2026-05-04 13:04 14.31768 93.84235 34879 ft 513 kts 135°
2026-05-04 13:04 14.26809 93.89602 34864 ft 513 kts 135°
2026-05-04 13:05 14.21922 93.94886 34876 ft 513 kts 135°
2026-05-04 13:05 14.16966 94.00242 34877 ft 513 kts 135°
2026-05-04 13:06 14.12043 94.05559 34878 ft 513 kts 135°
2026-05-04 13:06 14.07151 94.10839 34875 ft 513 kts 135°
2026-05-04 13:07 14.02227 94.16149 34877 ft 513 kts 135°
2026-05-04 13:07 13.97302 94.21457 34877 ft 513 kts 135°
2026-05-04 13:08 13.92374 94.26765 34876 ft 513 kts 135°
2026-05-04 13:08 13.87446 94.32069 34878 ft 512 kts 135°
2026-05-04 13:09 13.82520 94.37368 34878 ft 512 kts 135°
2026-05-04 13:09 13.77594 94.42663 34875 ft 512 kts 135°
2026-05-04 13:10 13.72668 94.47955 34879 ft 512 kts 135°
2026-05-04 13:10 13.67743 94.53242 34881 ft 512 kts 135°
2026-05-04 13:11 13.62817 94.58527 34882 ft 512 kts 135°
2026-05-04 13:11 13.57895 94.63804 34879 ft 511 kts 135°
2026-05-04 13:12 13.52972 94.69080 34881 ft 511 kts 135°
2026-05-04 13:12 13.48048 94.74352 34880 ft 511 kts 135°
2026-05-04 13:13 13.43128 94.79617 34877 ft 511 kts 135°
2026-05-04 13:13 13.38206 94.84881 34878 ft 511 kts 135°
2026-05-04 13:14 13.33288 94.90137 34883 ft 510 kts 135°
2026-05-04 13:14 13.28370 94.95391 34881 ft 510 kts 135°
2026-05-04 13:15 13.23451 95.00641 34883 ft 510 kts 135°
2026-05-04 13:15 13.18538 95.05882 34881 ft 510 kts 135°
2026-05-04 13:16 13.13621 95.11125 34882 ft 509 kts 135°
2026-05-04 13:16 13.08708 95.16359 34883 ft 509 kts 135°
2026-05-04 13:17 13.03829 95.21556 34881 ft 509 kts 135°
2026-05-04 13:17 12.98917 95.26783 34883 ft 509 kts 135°
2026-05-04 13:18 12.94008 95.32004 34886 ft 508 kts 135°
2026-05-04 13:18 12.89101 95.37222 34886 ft 508 kts 135°
2026-05-04 13:19 12.84194 95.42434 34885 ft 508 kts 135°
2026-05-04 13:19 12.79239 95.47590 34884 ft 508 kts 136°
2026-05-04 13:20 12.74255 95.52717 34885 ft 508 kts 136°
2026-05-04 13:20 12.69273 95.57848 34882 ft 508 kts 136°
2026-05-04 13:21 12.64299 95.62984 34887 ft 508 kts 136°
2026-05-04 13:21 12.59322 95.68125 34888 ft 508 kts 136°
2026-05-04 13:22 12.54342 95.73266 34887 ft 508 kts 136°
2026-05-04 13:22 12.49358 95.78406 34888 ft 509 kts 136°
2026-05-04 13:23 12.44372 95.83545 34887 ft 509 kts 136°
2026-05-04 13:23 12.39387 95.88680 34887 ft 509 kts 136°
2026-05-04 13:24 12.34400 95.93814 34887 ft 508 kts 136°
2026-05-04 13:24 12.29419 95.98940 34885 ft 508 kts 135°
2026-05-04 13:25 12.21959 96.06611 34885 ft 506 kts 135°
2026-05-04 13:25 12.16994 96.11713 34886 ft 506 kts 135°
2026-05-04 13:26 12.12038 96.16802 34887 ft 505 kts 135°
2026-05-04 13:26 12.07091 96.21880 34886 ft 504 kts 135°
2026-05-04 13:27 12.02178 96.26920 34884 ft 503 kts 135°
2026-05-04 13:27 11.97237 96.31988 34885 ft 503 kts 135°
2026-05-04 13:28 11.92233 96.36973 34885 ft 502 kts 140°
2026-05-04 13:28 11.86554 96.41099 34891 ft 501 kts 150°
2026-05-04 13:29 11.80356 96.44327 34894 ft 500 kts 154°
2026-05-04 13:29 11.74105 96.47439 34889 ft 500 kts 154°
2026-05-04 13:30 11.67867 96.50575 34888 ft 500 kts 154°
2026-05-04 13:30 11.61648 96.53733 34886 ft 499 kts 154°
2026-05-04 13:31 11.55435 96.56898 34887 ft 499 kts 154°
2026-05-04 13:31 11.49224 96.60059 34889 ft 499 kts 154°
2026-05-04 13:32 11.43009 96.63219 34892 ft 499 kts 154°
2026-05-04 13:32 11.36799 96.66374 34892 ft 499 kts 154°
2026-05-04 13:33 11.30592 96.69525 34890 ft 498 kts 154°
2026-05-04 13:33 11.24384 96.72675 34891 ft 498 kts 154°
2026-05-04 13:34 11.18186 96.75820 34889 ft 498 kts 154°
2026-05-04 13:34 11.13036 96.78431 34892 ft 497 kts 154°
2026-05-04 13:35 11.02743 96.83647 34890 ft 497 kts 154°
2026-05-04 13:36 10.96549 96.86784 34894 ft 497 kts 154°
2026-05-04 13:36 10.91354 96.89414 34893 ft 498 kts 154°
2026-05-04 13:37 10.84148 96.93060 34892 ft 498 kts 154°
2026-05-04 13:37 10.78946 96.95691 34893 ft 499 kts 154°
2026-05-04 13:38 10.72731 96.98833 34891 ft 499 kts 154°
2026-05-04 13:38 10.66517 97.01973 34890 ft 499 kts 154°
2026-05-04 13:39 10.60296 97.05115 34895 ft 499 kts 153°
2026-05-04 13:39 10.54116 97.08235 34894 ft 499 kts 153°
2026-05-04 13:40 10.47894 97.11375 34896 ft 499 kts 153°
2026-05-04 13:40 10.41673 97.14513 34892 ft 499 kts 153°
2026-05-04 13:41 10.35457 97.17647 34891 ft 499 kts 153°
2026-05-04 13:41 10.29242 97.20779 34893 ft 499 kts 153°
2026-05-04 13:42 10.19924 97.25473 34892 ft 498 kts 153°
2026-05-04 13:42 10.13712 97.28600 34897 ft 498 kts 153°
2026-05-04 13:43 10.07503 97.31725 34898 ft 498 kts 153°
2026-05-04 13:43 10.01293 97.34849 34891 ft 498 kts 153°
2026-05-04 13:44 9.95091 97.37981 34893 ft 498 kts 153°
2026-05-04 13:44 9.88896 97.41127 34896 ft 498 kts 153°
2026-05-04 13:45 9.82703 97.44273 34896 ft 498 kts 153°
2026-05-04 13:45 9.76505 97.47416 34903 ft 498 kts 153°
2026-05-04 13:46 9.70306 97.50559 34895 ft 498 kts 153°
2026-05-04 13:46 9.64110 97.53697 34899 ft 498 kts 153°
2026-05-04 13:47 9.57915 97.56834 34913 ft 498 kts 153°
2026-05-04 13:47 9.51704 97.59978 34884 ft 499 kts 153°
2026-05-04 13:48 9.45504 97.63116 34899 ft 498 kts 153°
2026-05-04 13:48 9.39313 97.66247 34896 ft 497 kts 153°
2026-05-04 13:49 9.33137 97.69370 34898 ft 496 kts 153°
2026-05-04 13:49 9.26974 97.72485 34902 ft 495 kts 153°
2026-05-04 13:50 9.20820 97.75594 34902 ft 494 kts 153°
2026-05-04 13:50 9.14677 97.78696 34901 ft 493 kts 153°
2026-05-04 13:51 9.08539 97.81796 34903 ft 493 kts 153°
2026-05-04 13:51 9.02393 97.84898 34902 ft 494 kts 153°
2026-05-04 13:52 8.93203 97.89528 34902 ft 494 kts 153°
2026-05-04 13:53 8.87043 97.92629 34904 ft 495 kts 153°
2026-05-04 13:53 8.80874 97.95735 34905 ft 496 kts 153°
2026-05-04 13:54 8.71606 98.00400 34899 ft 496 kts 153°
2026-05-04 13:55 8.62329 98.05067 34898 ft 497 kts 153°
2026-05-04 13:55 8.53049 98.09734 34896 ft 497 kts 153°
2026-05-04 13:56 8.46859 98.12852 34897 ft 497 kts 153°
2026-05-04 13:57 8.37571 98.17530 34881 ft 497 kts 153°
2026-05-04 13:58 8.25179 98.23768 34864 ft 498 kts 153°
2026-05-04 13:58 8.15876 98.28448 34858 ft 498 kts 153°
2026-05-04 13:59 8.09910 98.31893 34860 ft 497 kts 144°
2026-05-04 14:00 8.01828 98.38514 34861 ft 497 kts 140°
2026-05-04 14:00 7.93854 98.45145 34869 ft 497 kts 140°
2026-05-04 14:01 7.88491 98.49554 34874 ft 497 kts 140°
2026-05-04 14:02 7.80444 98.56167 34880 ft 497 kts 140°
2026-05-04 14:02 7.75083 98.60575 34884 ft 497 kts 140°
2026-05-04 14:03 7.69718 98.64984 34884 ft 497 kts 140°
2026-05-04 14:03 7.64359 98.69387 34884 ft 497 kts 140°
2026-05-04 14:04 7.56323 98.75993 34890 ft 497 kts 140°
2026-05-04 14:04 7.50972 98.80390 34882 ft 496 kts 140°
2026-05-04 14:05 7.42950 98.86975 34896 ft 495 kts 140°
2026-05-04 14:06 7.37607 98.91357 34899 ft 495 kts 140°
2026-05-04 14:06 7.32269 98.95735 34900 ft 495 kts 140°
2026-05-04 14:07 7.26931 99.00113 34900 ft 495 kts 140°
2026-05-04 14:07 7.21632 99.04458 34902 ft 494 kts 140°
2026-05-04 14:08 7.16300 99.08829 34901 ft 494 kts 140°
2026-05-04 14:08 7.10967 99.13199 34905 ft 494 kts 140°
2026-05-04 14:09 7.02968 99.19751 34904 ft 494 kts 140°
2026-05-04 14:10 6.94965 99.26304 34898 ft 494 kts 140°
2026-05-04 14:10 6.89629 99.30670 34899 ft 495 kts 140°
2026-05-04 14:11 6.84288 99.35040 34901 ft 495 kts 140°
2026-05-04 14:11 6.76267 99.41600 34901 ft 496 kts 140°
2026-05-04 14:12 6.70914 99.45978 34902 ft 496 kts 140°
2026-05-04 14:13 6.62877 99.52546 34901 ft 497 kts 140°
2026-05-04 14:13 6.57513 99.56929 34904 ft 497 kts 140°
2026-05-04 14:14 6.52145 99.61314 34909 ft 497 kts 140°
2026-05-04 14:14 6.44062 99.67851 34914 ft 497 kts 142°
2026-05-04 14:15 6.33075 99.76286 34911 ft 497 kts 142°
2026-05-04 14:16 6.24877 99.82585 34911 ft 496 kts 142°
2026-05-04 14:17 6.16646 99.88905 34908 ft 496 kts 142°
2026-05-04 14:18 6.08415 99.95227 34908 ft 497 kts 142°
2026-05-04 14:19 5.97393 100.03644 34906 ft 498 kts 142°
2026-05-04 14:19 5.91840 100.07827 34902 ft 499 kts 142°
2026-05-04 14:20 5.86285 100.12025 34900 ft 500 kts 142°
2026-05-04 14:20 5.80722 100.16237 34893 ft 501 kts 142°
2026-05-04 14:21 5.72375 100.22559 34886 ft 501 kts 142°
2026-05-04 14:21 5.66805 100.26775 34884 ft 501 kts 142°
2026-05-04 14:22 5.61236 100.30989 34883 ft 501 kts 142°
2026-05-04 14:22 5.55707 100.35172 34884 ft 501 kts 142°
2026-05-04 14:23 5.47323 100.41513 34885 ft 501 kts 142°
2026-05-04 14:24 5.41759 100.45720 34885 ft 501 kts 142°
2026-05-04 14:24 5.37129 100.49220 34886 ft 501 kts 142°
2026-05-04 14:25 5.30653 100.54114 34882 ft 501 kts 142°
2026-05-04 14:25 5.22299 100.60426 34878 ft 501 kts 142°
2026-05-04 14:26 5.17634 100.63950 34879 ft 501 kts 142°
2026-05-04 14:26 5.12110 100.68122 34882 ft 500 kts 142°
2026-05-04 14:27 5.06562 100.72312 34885 ft 499 kts 142°
2026-05-04 14:27 5.01015 100.76499 34887 ft 498 kts 142°
2026-05-04 14:28 4.95484 100.80674 34886 ft 497 kts 142°
2026-05-04 14:28 4.89954 100.84847 34891 ft 497 kts 142°
2026-05-04 14:29 4.78913 100.93174 34901 ft 496 kts 142°
2026-05-04 14:30 4.73397 100.97335 34907 ft 496 kts 142°
2026-05-04 14:31 4.65136 101.03566 34914 ft 495 kts 142°
2026-05-04 14:32 4.53313 101.10607 34917 ft 498 kts 158°
2026-05-04 14:32 4.46675 101.12631 34919 ft 499 kts 163°
2026-05-04 14:33 4.39983 101.14504 34913 ft 500 kts 163°
2026-05-04 14:33 4.33291 101.16413 34910 ft 500 kts 162°
2026-05-04 14:34 4.26606 101.18354 34908 ft 500 kts 162°
2026-05-04 14:34 4.19919 101.20304 34916 ft 501 kts 162°
2026-05-04 14:35 4.13222 101.22255 34912 ft 502 kts 162°
2026-05-04 14:35 4.06517 101.24205 34907 ft 502 kts 162°
2026-05-04 14:36 3.99804 101.26157 34909 ft 502 kts 162°
2026-05-04 14:36 3.93088 101.28110 34910 ft 503 kts 162°
2026-05-04 14:37 3.86372 101.30063 34907 ft 503 kts 162°
2026-05-04 14:37 3.79658 101.32015 34907 ft 502 kts 162°
2026-05-04 14:38 3.72958 101.34005 34900 ft 502 kts 161°
2026-05-04 14:38 3.66260 101.36016 34902 ft 502 kts 161°
2026-05-04 14:39 3.59612 101.38006 34904 ft 502 kts 161°
2026-05-04 14:39 3.52921 101.40003 34904 ft 502 kts 161°
2026-05-04 14:40 3.42889 101.42998 34905 ft 501 kts 161°
2026-05-04 14:40 3.36209 101.44992 34904 ft 501 kts 161°
2026-05-04 14:41 3.29652 101.47301 34891 ft 499 kts 154°
2026-05-04 14:42 3.17087 101.53189 34894 ft 500 kts 153°
2026-05-04 14:42 3.10771 101.56118 34891 ft 499 kts 153°
2026-05-04 14:43 3.04470 101.59023 34887 ft 498 kts 153°
2026-05-04 14:43 2.98181 101.61920 34892 ft 497 kts 153°
2026-05-04 14:44 2.91907 101.64810 34892 ft 496 kts 153°
2026-05-04 14:44 2.85629 101.67702 34873 ft 497 kts 153°
2026-05-04 14:45 2.79352 101.70596 34886 ft 496 kts 153°
2026-05-04 14:45 2.73090 101.73481 34890 ft 495 kts 153°
2026-05-04 14:46 2.66932 101.76429 34891 ft 493 kts 152°
2026-05-04 14:46 2.60780 101.79456 34893 ft 492 kts 152°
2026-05-04 14:47 2.54883 101.82876 34892 ft 489 kts 140°
2026-05-04 14:47 2.50021 101.87578 34889 ft 486 kts 127°
2026-05-04 14:48 2.45976 101.92987 34892 ft 486 kts 125°
2026-05-04 14:48 2.41973 101.98440 34902 ft 487 kts 125°
2026-05-04 14:49 2.37920 102.03877 34908 ft 488 kts 126°
2026-05-04 14:49 2.33833 102.09308 34911 ft 490 kts 126°
2026-05-04 14:50 2.29733 102.14755 34902 ft 490 kts 126°
2026-05-04 14:50 2.25628 102.20208 34896 ft 491 kts 126°
2026-05-04 14:51 2.21519 102.25664 34915 ft 491 kts 126°
2026-05-04 14:51 2.17420 102.31110 34918 ft 490 kts 126°
2026-05-04 14:52 2.13323 102.36553 34917 ft 490 kts 126°
2026-05-04 14:52 2.09231 102.41990 34921 ft 489 kts 126°
2026-05-04 14:53 2.05145 102.47419 34918 ft 488 kts 126°
2026-05-04 14:53 2.01060 102.52844 34917 ft 488 kts 126°
2026-05-04 14:54 1.96983 102.58259 34919 ft 488 kts 126°
2026-05-04 14:54 1.92902 102.63682 34609 ft 492 kts 126°
2026-05-04 14:55 1.90818 102.66454 33732 ft 501 kts 126°
2026-05-04 14:55 1.88722 102.69240 32763 ft 502 kts 126°
2026-05-04 14:55 1.86619 102.72034 31813 ft 502 kts 126°
2026-05-04 14:55 1.84516 102.74828 30825 ft 504 kts 126°
2026-05-04 14:56 1.82412 102.77623 30119 ft 500 kts 126°
2026-05-04 14:56 1.80330 102.80389 29340 ft 496 kts 126°
2026-05-04 14:56 1.78265 102.83132 28626 ft 491 kts 126°
2026-05-04 14:56 1.76225 102.85843 27948 ft 485 kts 126°
2026-05-04 14:57 1.74229 102.88537 27304 ft 480 kts 124°
2026-05-04 14:57 1.72458 102.91341 26659 ft 474 kts 118°
2026-05-04 14:57 1.70923 102.94237 26049 ft 469 kts 117°
2026-05-04 14:57 1.69421 102.97118 25409 ft 466 kts 117°
2026-05-04 14:58 1.67921 102.99977 24783 ft 463 kts 117°
2026-05-04 14:58 1.66419 103.02809 24162 ft 460 kts 117°
2026-05-04 14:58 1.64938 103.05579 23557 ft 457 kts 117°
2026-05-04 14:58 1.63443 103.08369 22843 ft 454 kts 117°
2026-05-04 14:59 1.61879 103.11073 22176 ft 446 kts 124°
2026-05-04 14:59 1.59749 103.13306 21588 ft 444 kts 141°
2026-05-04 14:59 1.54649 103.16602 20451 ft 433 kts 146°
2026-05-04 15:00 1.52129 103.18220 19885 ft 429 kts 145°
2026-05-04 15:00 1.49629 103.19844 19304 ft 427 kts 145°
2026-05-04 15:00 1.47153 103.21465 18731 ft 424 kts 145°
2026-05-04 15:01 1.42253 103.24694 17523 ft 419 kts 145°
2026-05-04 15:01 1.39830 103.26294 16949 ft 416 kts 145°
2026-05-04 15:01 1.37430 103.27879 16388 ft 412 kts 145°
2026-05-04 15:01 1.35048 103.29452 15827 ft 408 kts 145°
2026-05-04 15:02 1.32686 103.31011 15287 ft 405 kts 146°
2026-05-04 15:02 1.30343 103.32558 14752 ft 402 kts 146°
2026-05-04 15:02 1.28015 103.34094 14199 ft 400 kts 146°
2026-05-04 15:02 1.25700 103.35622 13653 ft 398 kts 146°
2026-05-04 15:03 1.23408 103.37134 13320 ft 389 kts 146°
2026-05-04 15:03 1.21190 103.38598 13117 ft 377 kts 146°
2026-05-04 15:03 1.19033 103.40021 12928 ft 366 kts 146°
2026-05-04 15:03 1.16944 103.41399 12766 ft 355 kts 146°
2026-05-04 15:04 1.14916 103.42738 12614 ft 344 kts 146°
2026-05-04 15:04 1.12955 103.44033 12531 ft 332 kts 146°
2026-05-04 15:04 1.11062 103.45282 12428 ft 321 kts 146°
2026-05-04 15:04 1.09230 103.46490 12299 ft 311 kts 146°
2026-05-04 15:05 1.07450 103.47664 12168 ft 301 kts 146°
2026-05-04 15:05 1.05809 103.48880 12039 ft 287 kts 131°
2026-05-04 15:05 1.04816 103.50543 11879 ft 277 kts 108°
2026-05-04 15:05 1.04501 103.52423 11551 ft 274 kts 88°
2026-05-04 15:06 1.04682 103.54310 11247 ft 271 kts 82°
2026-05-04 15:06 1.04942 103.56172 10920 ft 270 kts 82°
2026-05-04 15:06 1.05209 103.58028 10593 ft 269 kts 82°
2026-05-04 15:07 1.05726 103.61723 9950 ft 268 kts 82°
2026-05-04 15:07 1.05978 103.63570 9587 ft 268 kts 82°
2026-05-04 15:07 1.06226 103.65414 9241 ft 267 kts 82°
2026-05-04 15:07 1.06471 103.67254 8903 ft 267 kts 82°
2026-05-04 15:08 1.06714 103.69085 8571 ft 266 kts 82°
2026-05-04 15:08 1.06956 103.70913 8248 ft 265 kts 82°
2026-05-04 15:08 1.07197 103.72732 7923 ft 264 kts 82°
2026-05-04 15:08 1.07432 103.74547 7597 ft 264 kts 83°
2026-05-04 15:09 1.07660 103.76338 7312 ft 262 kts 83°
2026-05-04 15:09 1.07890 103.78157 6942 ft 258 kts 82°
2026-05-04 15:09 1.08108 103.79873 6553 ft 247 kts 83°
2026-05-04 15:10 1.08521 103.83119 5789 ft 226 kts 82°
2026-05-04 15:10 1.08715 103.84645 5390 ft 219 kts 82°
2026-05-04 15:10 1.10203 103.87004 5009 ft 212 kts 30°
2026-05-04 15:11 1.11504 103.87730 4741 ft 215 kts 26°
2026-05-04 15:11 1.12851 103.88374 4477 ft 214 kts 23°
2026-05-04 15:11 1.14203 103.88966 4190 ft 211 kts 22°
2026-05-04 15:11 1.15543 103.89538 3935 ft 208 kts 22°
2026-05-04 15:12 1.16864 103.90099 3671 ft 204 kts 22°
2026-05-04 15:12 1.18159 103.90647 3414 ft 201 kts 22°
2026-05-04 15:12 1.19438 103.91189 3180 ft 199 kts 22°
2026-05-04 15:12 1.20718 103.91732 2931 ft 201 kts 22°
2026-05-04 15:13 1.21576 103.92095 2769 ft 203 kts 22°
2026-05-04 15:13 1.23323 103.92837 2409 ft 205 kts 22°
2026-05-04 15:13 1.24630 103.93392 2129 ft 201 kts 22°
2026-05-04 15:13 1.25866 103.93917 1914 ft 185 kts 23°
2026-05-04 15:14 1.26634 103.94242 1731 ft 177 kts 23°
2026-05-04 15:14 1.27711 103.94699 1499 ft 159 kts 23°
2026-05-04 15:14 1.28717 103.95126 1322 ft 157 kts 23°
2026-05-04 15:14 1.29731 103.95556 1094 ft 158 kts 23°
2026-05-04 15:15 1.30203 103.95756 995 ft 156 kts 23°
2026-05-04 15:15 1.30700 103.95967 904 ft 155 kts 23°
2026-05-04 15:15 1.31688 103.96387 724 ft 154 kts 23°
2026-05-04 15:16 1.33670 103.97231 354 ft 156 kts 22°
2026-05-04 15:16 1.34664 103.97652 137 ft 154 kts 22°
2026-05-04 15:16 1.36388 103.98375 35 ft 92 kts 23°
2026-05-04 15:17 1.36807 103.98552 35 ft 39 kts 22°
2026-05-04 15:17 1.37048 103.98704 35 ft 19 kts 48°
2026-05-04 15:17 1.37102 103.98774 35 ft 5 kts 61°
2026-05-04 15:18 1.37105 103.98811 35 ft 5 kts 103°
2026-05-04 15:18 1.37082 103.98841 35 ft 5 kts 143°
2026-05-04 15:18 1.37045 103.98844 35 ft 6 kts 192°
2026-05-04 15:19 1.36950 103.98804 35 ft 10 kts 202°
2026-05-04 15:19 1.36884 103.98782 35 ft 10 kts 185°
2026-05-04 15:19 1.36803 103.98883 35 ft 10 kts 112°
2026-05-04 15:20 1.36776 103.98948 35 ft 10 kts 113°
2026-05-04 15:20 1.36742 103.99027 35 ft 16 kts 113°
2026-05-04 15:20 1.36694 103.99139 35 ft 18 kts 113°
2026-05-04 15:20 1.36644 103.99255 35 ft 18 kts 113°
2026-05-04 15:21 1.36594 103.99371 35 ft 18 kts 113°
2026-05-04 15:21 1.36545 103.99486 35 ft 18 kts 113°
2026-05-04 15:21 1.36458 103.99605 35 ft 9 kts 178°
2026-05-04 15:22 1.36400 103.99585 35 ft 9 kts 213°
2026-05-04 15:22 1.36358 103.99541 35 ft 9 kts 231°
2026-05-04 15:22 1.36282 103.99444 35 ft 9 kts 224°
2026-05-04 15:23 1.36230 103.99411 35 ft 9 kts 204°
2026-05-04 15:23 1.36172 103.99388 35 ft 9 kts 202°
2026-05-04 15:23 1.36116 103.99365 35 ft 8 kts 202°
2026-05-04 15:23 1.36095 103.99329 35 ft 7 kts 283°
2026-05-04 15:24 1.36117 103.99276 35 ft 1 kts 294°
2026-05-04 15:24 1.36119 103.99272 35 ft 0 kts 294°